Time,TemperatureF,DewpointF,PressureIn,WindDirection,WindDirectionDegrees,WindSpeedMPH,WindSpeedGustMPH,Humidity,HourlyPrecipIn,Conditions,Clouds,dailyrainin,SoftwareType,DateUTC
2013-02-21 00:11:00,33.0,19.0,30.25,East,79,3.0,8.0,56,0.00,,,0.00,,2013-02-21 06:11:00,
2013-02-21 00:21:00,33.0,19.0,30.24,East,87,3.0,7.0,57,0.00,,,0.00,,2013-02-21 06:21:00,
2013-02-21 00:31:00,33.0,19.0,30.25,East,86,0.0,6.0,57,0.00,,,0.00,,2013-02-21 06:31:00,
2013-02-21 00:41:00,33.0,19.0,30.25,East,86,0.0,6.0,57,0.00,,,0.00,,2013-02-21 06:41:00,
2013-02-21 00:51:00,33.0,19.0,30.25,NE,42,2.0,7.0,57,0.00,,,0.00,,2013-02-21 06:51:00,
2013-02-21 01:01:00,33.0,19.0,30.25,NNE,27,3.0,8.0,57,0.00,,,0.00,,2013-02-21 07:01:00,
2013-02-21 01:11:00,33.0,20.0,30.24,East,80,1.0,7.0,59,0.00,,,0.00,,2013-02-21 07:11:00,
2013-02-21 01:21:00,33.0,20.0,30.24,East,80,1.0,7.0,59,0.00,,,0.00,,2013-02-21 07:21:00,
2013-02-21 01:32:00,33.0,20.0,30.24,NE,47,1.0,8.0,59,0.00,,,0.00,,2013-02-21 07:32:00,
2013-02-21 01:42:00,33.0,21.0,30.22,ENE,72,1.0,6.0,60,0.00,,,0.00,,2013-02-21 07:42:00,
2013-02-21 01:52:00,33.0,21.0,30.22,ENE,72,1.0,6.0,60,0.00,,,0.00,,2013-02-21 07:52:00,
2013-02-21 02:01:00,33.0,20.0,30.22,East,80,1.0,11.0,59,0.00,,,0.00,,2013-02-21 08:01:00,
2013-02-21 02:11:00,33.0,21.0,30.24,NE,44,3.0,5.0,60,0.00,,,0.00,,2013-02-21 08:11:00,
2013-02-21 02:21:00,33.0,21.0,30.24,NE,44,3.0,5.0,60,0.00,,,0.00,,2013-02-21 08:21:00,
2013-02-21 02:32:00,33.0,21.0,30.22,NNE,14,2.0,9.0,60,0.00,,,0.00,,2013-02-21 08:32:00,
2013-02-21 02:41:00,33.0,21.0,30.22,NNE,14,2.0,9.0,60,0.00,,,0.00,,2013-02-21 08:41:00,
2013-02-21 02:52:00,32.0,20.0,30.22,East,92,2.0,8.0,61,0.00,,,0.00,,2013-02-21 08:52:00,
2013-02-21 03:01:00,32.0,20.0,30.21,NE,42,1.0,5.0,62,0.00,,,0.00,,2013-02-21 09:01:00,
2013-02-21 03:11:00,32.0,20.0,30.21,NE,42,1.0,5.0,62,0.00,,,0.00,,2013-02-21 09:11:00,
2013-02-21 03:22:00,32.0,20.0,30.21,ENE,72,1.0,9.0,61,0.00,,,0.00,,2013-02-21 09:22:00,
2013-02-21 03:31:00,32.0,20.0,30.20,ENE,57,1.0,9.0,60,0.00,,,0.00,,2013-02-21 09:31:00,
2013-02-21 03:41:00,32.0,20.0,30.20,ENE,57,1.0,9.0,60,0.00,,,0.00,,2013-02-21 09:41:00,
2013-02-21 03:52:00,32.0,20.0,30.21,ENE,74,1.0,8.0,61,0.00,,,0.00,,2013-02-21 09:52:00,
2013-02-21 04:01:00,32.0,20.0,30.22,NE,44,1.0,9.0,62,0.00,,,0.00,,2013-02-21 10:01:00,
2013-02-21 04:11:00,32.0,20.0,30.22,NE,44,1.0,9.0,62,0.00,,,0.00,,2013-02-21 10:11:00,
2013-02-21 04:21:00,32.0,20.0,30.22,ESE,102,1.0,10.0,62,0.00,,,0.00,,2013-02-21 10:21:00,
2013-02-21 04:31:00,32.0,21.0,30.23,NE,55,0.0,7.0,63,0.00,,,0.00,,2013-02-21 10:31:00,
2013-02-21 04:41:00,32.0,21.0,30.23,NE,55,0.0,7.0,63,0.00,,,0.00,,2013-02-21 10:41:00,
2013-02-21 04:51:00,32.0,21.0,30.22,ENE,59,4.0,10.0,63,0.00,,,0.00,,2013-02-21 10:51:00,
2013-02-21 05:01:00,32.0,23.0,30.21,ENE,63,1.0,11.0,68,0.00,,,0.00,,2013-02-21 11:01:00,
2013-02-21 05:11:00,32.0,23.0,30.21,ENE,63,1.0,11.0,68,0.00,,,0.00,,2013-02-21 11:11:00,
2013-02-21 05:21:00,31.0,23.0,30.21,ENE,73,1.0,9.0,71,0.00,,,0.00,,2013-02-21 11:21:00,
2013-02-21 05:31:00,31.0,23.0,30.21,East,93,1.0,14.0,72,0.00,,,0.00,,2013-02-21 11:31:00,
2013-02-21 05:41:00,31.0,23.0,30.21,East,93,1.0,14.0,72,0.00,,,0.00,,2013-02-21 11:41:00,
2013-02-21 05:52:00,31.0,23.0,30.20,East,82,2.0,6.0,73,0.00,,,0.00,,2013-02-21 11:52:00,
2013-02-21 06:01:00,31.0,23.0,30.20,East,80,3.0,9.0,72,0.00,,,0.00,,2013-02-21 12:01:00,
2013-02-21 06:11:00,31.0,23.0,30.20,East,80,3.0,9.0,72,0.00,,,0.00,,2013-02-21 12:11:00,
2013-02-21 06:21:00,31.0,22.0,30.18,NNE,28,2.0,8.0,70,0.00,,,0.00,,2013-02-21 12:21:00,
2013-02-21 06:32:00,31.0,23.0,30.18,ENE,71,4.0,13.0,71,0.00,,,0.00,,2013-02-21 12:32:00,
2013-02-21 06:42:00,31.0,23.0,30.19,ESE,121,3.0,9.0,71,0.00,,,0.00,,2013-02-21 12:42:00,
2013-02-21 06:53:00,31.0,23.0,30.19,ESE,121,3.0,9.0,71,0.00,,,0.00,,2013-02-21 12:53:00,
2013-02-21 07:01:00,31.0,23.0,30.17,East,88,2.0,7.0,71,0.00,,,0.00,,2013-02-21 13:01:00,
2013-02-21 07:12:00,31.0,23.0,30.17,East,88,2.0,7.0,71,0.00,,,0.00,,2013-02-21 13:12:00,
2013-02-21 07:22:00,31.0,22.0,30.17,WSW,253,4.0,13.0,70,0.00,,,0.00,,2013-02-21 13:22:00,
2013-02-21 07:32:00,31.0,22.0,30.16,ESE,105,2.0,11.0,70,0.00,,,0.00,,2013-02-21 13:32:00,
2013-02-21 07:41:00,31.0,22.0,30.16,ESE,105,2.0,11.0,70,0.00,,,0.00,,2013-02-21 13:41:00,
2013-02-21 07:52:00,32.0,23.0,30.17,ESE,113,3.0,9.0,70,0.00,,,0.00,,2013-02-21 13:52:00,
2013-02-21 08:02:00,32.0,23.0,30.17,NE,42,1.0,10.0,68,0.00,,,0.00,,2013-02-21 14:02:00,
2013-02-21 08:11:00,32.0,23.0,30.17,NE,42,1.0,10.0,68,0.00,,,0.00,,2013-02-21 14:11:00,
2013-02-21 08:21:00,32.0,23.0,30.18,ESE,106,4.0,8.0,69,0.00,,,0.00,,2013-02-21 14:21:00,
2013-02-21 08:32:00,33.0,23.0,30.17,East,82,4.0,9.0,67,0.00,,,0.00,,2013-02-21 14:32:00,
2013-02-21 08:42:00,33.0,23.0,30.17,East,82,4.0,9.0,67,0.00,,,0.00,,2013-02-21 14:42:00,
2013-02-21 08:52:00,33.0,23.0,30.16,East,84,2.0,12.0,67,0.00,,,0.00,,2013-02-21 14:52:00,
2013-02-21 09:01:00,34.0,24.0,30.15,East,101,4.0,11.0,67,0.00,,,0.00,,2013-02-21 15:01:00,
2013-02-21 09:12:00,34.0,24.0,30.15,East,101,4.0,11.0,67,0.00,,,0.00,,2013-02-21 15:12:00,
2013-02-21 09:21:00,34.0,24.0,30.15,ENE,63,2.0,9.0,67,0.00,,,0.00,,2013-02-21 15:21:00,
2013-02-21 09:32:00,34.0,24.0,30.14,East,96,2.0,8.0,66,0.00,,,0.00,,2013-02-21 15:32:00,
2013-02-21 09:42:00,34.0,24.0,30.14,East,96,2.0,8.0,66,0.00,,,0.00,,2013-02-21 15:42:00,
2013-02-21 09:52:00,35.0,26.0,30.13,ESE,121,4.0,12.0,68,0.00,,,0.00,,2013-02-21 15:52:00,
2013-02-21 10:01:00,35.0,27.0,30.14,East,100,0.0,8.0,71,0.01,,,0.01,,2013-02-21 16:01:00,
2013-02-21 10:12:00,35.0,26.0,30.13,ENE,78,4.0,10.0,69,0.01,,,0.01,,2013-02-21 16:12:00,
2013-02-21 10:21:00,35.0,26.0,30.13,ENE,78,4.0,10.0,69,0.01,,,0.01,,2013-02-21 16:21:00,
2013-02-21 10:32:00,35.0,26.0,30.11,East,80,3.0,9.0,69,0.01,,,0.01,,2013-02-21 16:32:00,
2013-02-21 10:42:00,36.0,26.0,30.10,ENE,71,3.0,9.0,66,0.01,,,0.01,,2013-02-21 16:42:00,
2013-02-21 10:52:00,36.0,26.0,30.10,ENE,71,3.0,9.0,66,0.01,,,0.01,,2013-02-21 16:52:00,
2013-02-21 11:01:00,37.0,26.0,30.09,East,82,5.0,12.0,64,0.00,,,0.01,,2013-02-21 17:01:00,
2013-02-21 11:11:00,38.0,26.0,30.06,ESE,108,5.0,13.0,62,0.00,,,0.01,,2013-02-21 17:11:00,
2013-02-21 11:21:00,38.0,26.0,30.06,ESE,108,5.0,13.0,62,0.00,,,0.01,,2013-02-21 17:21:00,
2013-02-21 11:32:00,39.0,27.0,30.03,ENE,76,5.0,13.0,61,0.00,,,0.01,,2013-02-21 17:32:00,
2013-02-21 11:42:00,39.0,27.0,30.03,ENE,76,5.0,13.0,61,0.00,,,0.01,,2013-02-21 17:42:00,
2013-02-21 11:52:00,40.0,26.0,30.02,SE,132,3.0,15.0,56,0.00,,,0.01,,2013-02-21 17:52:00,
2013-02-21 12:01:00,40.0,25.0,29.99,NNE,31,4.0,15.0,54,0.00,,,0.01,,2013-02-21 18:01:00,
2013-02-21 12:11:00,40.0,25.0,29.99,NNE,31,4.0,15.0,54,0.00,,,0.01,,2013-02-21 18:11:00,
2013-02-21 12:22:00,40.0,25.0,29.98,NE,52,3.0,15.0,54,0.00,,,0.01,,2013-02-21 18:22:00,
2013-02-21 12:31:00,41.0,25.0,29.98,NE,55,3.0,10.0,53,0.00,,,0.01,,2013-02-21 18:31:00,
2013-02-21 12:42:00,41.0,25.0,29.98,NE,55,3.0,10.0,53,0.00,,,0.01,,2013-02-21 18:42:00,
2013-02-21 12:52:00,41.0,25.0,29.96,SE,130,4.0,10.0,52,0.00,,,0.01,,2013-02-21 18:52:00,
2013-02-21 13:01:00,41.0,25.0,29.95,East,96,4.0,11.0,52,0.00,,,0.01,,2013-02-21 19:01:00,
2013-02-21 13:12:00,41.0,25.0,29.95,East,96,4.0,11.0,52,0.00,,,0.01,,2013-02-21 19:12:00,
2013-02-21 13:21:00,42.0,25.0,29.93,East,83,4.0,11.0,50,0.00,,,0.01,,2013-02-21 19:21:00,
2013-02-21 13:31:00,42.0,25.0,29.95,ENE,67,2.0,10.0,50,0.00,,,0.01,,2013-02-21 19:31:00,
2013-02-21 13:41:00,42.0,25.0,29.95,ENE,67,2.0,10.0,50,0.00,,,0.01,,2013-02-21 19:41:00,
2013-02-21 13:52:00,42.0,29.0,29.95,ENE,77,1.0,7.0,60,0.01,,,0.02,,2013-02-21 19:52:00,
2013-02-21 14:01:00,40.0,32.0,29.92,ENE,62,2.0,5.0,73,0.03,,,0.04,,2013-02-21 20:01:00,
2013-02-21 14:11:00,39.0,32.0,29.96,NE,44,2.0,3.0,77,0.04,,,0.05,,2013-02-21 20:11:00,
2013-02-21 14:21:00,39.0,32.0,29.96,NE,44,2.0,3.0,77,0.04,,,0.05,,2013-02-21 20:21:00,
2013-02-21 14:32:00,37.0,33.0,29.98,NE,34,2.0,6.0,85,0.07,,,0.08,,2013-02-21 20:32:00,
2013-02-21 14:53:00,37.0,33.0,29.97,NE,52,1.0,4.0,86,0.07,,,0.09,,2013-02-21 20:53:00,
2013-02-21 15:02:00,37.0,34.0,29.97,NNE,32,2.0,5.0,88,0.07,,,0.11,,2013-02-21 21:02:00,
2013-02-21 15:11:00,36.0,33.0,29.92,ENE,68,5.0,13.0,89,0.08,,,0.13,,2013-02-21 21:11:00,
2013-02-21 15:21:00,36.0,33.0,29.92,ENE,68,5.0,13.0,89,0.08,,,0.13,,2013-02-21 21:21:00,
2013-02-21 15:31:00,36.0,33.0,29.89,ENE,71,4.0,16.0,89,0.09,,,0.16,,2013-02-21 21:31:00,
2013-02-21 15:42:00,36.0,33.0,29.89,NE,51,4.0,11.0,90,0.08,,,0.18,,2013-02-21 21:42:00,
2013-02-21 15:52:00,36.0,33.0,29.89,NE,51,4.0,11.0,90,0.08,,,0.18,,2013-02-21 21:52:00,
2013-02-21 16:01:00,37.0,34.0,29.86,ESE,117,6.0,14.0,90,0.09,,,0.20,,2013-02-21 22:01:00,
2013-02-21 16:11:00,37.0,34.0,29.86,ESE,117,6.0,14.0,90,0.09,,,0.20,,2013-02-21 22:11:00,
2013-02-21 16:21:00,37.0,35.0,29.90,NNE,21,2.0,13.0,91,0.09,,,0.22,,2013-02-21 22:21:00,
2013-02-21 16:31:00,37.0,35.0,29.85,SSE,159,6.0,12.0,91,0.08,,,0.24,,2013-02-21 22:31:00,
2013-02-21 16:42:00,37.0,35.0,29.84,SE,142,8.0,19.0,92,0.08,,,0.26,,2013-02-21 22:42:00,
2013-02-21 16:52:00,37.0,35.0,29.84,SE,142,8.0,19.0,92,0.08,,,0.26,,2013-02-21 22:52:00,
2013-02-21 17:01:00,37.0,35.0,29.86,SE,130,3.0,12.0,92,0.08,,,0.28,,2013-02-21 23:01:00,
2013-02-21 17:11:00,37.0,35.0,29.86,SE,130,3.0,12.0,92,0.08,,,0.28,,2013-02-21 23:11:00,
2013-02-21 17:21:00,38.0,36.0,29.86,SE,144,5.0,13.0,92,0.08,,,0.30,,2013-02-21 23:21:00,
2013-02-21 17:31:00,38.0,36.0,29.88,ESE,113,3.0,10.0,93,0.08,,,0.32,,2013-02-21 23:31:00,
2013-02-21 17:41:00,38.0,36.0,29.88,ESE,113,3.0,10.0,93,0.08,,,0.32,,2013-02-21 23:41:00,
2013-02-21 17:52:00,38.0,36.0,29.92,NNE,17,3.0,7.0,93,0.08,,,0.34,,2013-02-21 23:52:00,
2013-02-21 18:01:00,38.0,36.0,29.90,NE,49,2.0,8.0,93,0.08,,,0.36,,2013-02-22 00:01:00,
2013-02-21 18:11:00,38.0,36.0,29.90,NE,49,2.0,8.0,93,0.08,,,0.36,,2013-02-22 00:11:00,
2013-02-21 18:21:00,38.0,36.0,29.91,East,92,3.0,7.0,93,0.08,,,0.38,,2013-02-22 00:21:00,
2013-02-21 18:31:00,39.0,37.0,29.90,ESE,106,3.0,8.0,93,0.07,,,0.39,,2013-02-22 00:31:00,
2013-02-21 18:41:00,39.0,37.0,29.90,ESE,106,3.0,8.0,93,0.07,,,0.39,,2013-02-22 00:41:00,
2013-02-21 18:52:00,39.0,37.0,29.88,ENE,78,4.0,14.0,93,0.07,,,0.41,,2013-02-22 00:52:00,
2013-02-21 19:01:00,39.0,37.0,29.87,SE,134,5.0,14.0,94,0.07,,,0.43,,2013-02-22 01:01:00,
2013-02-21 19:11:00,39.0,37.0,29.87,SE,134,5.0,14.0,94,0.07,,,0.43,,2013-02-22 01:11:00,
2013-02-21 19:21:00,40.0,38.0,29.86,East,87,3.0,10.0,94,0.07,,,0.45,,2013-02-22 01:21:00,
2013-02-21 19:32:00,40.0,38.0,29.86,ESE,103,4.0,16.0,94,0.08,,,0.47,,2013-02-22 01:32:00,
2013-02-21 19:42:00,40.0,38.0,29.86,ESE,103,4.0,16.0,94,0.08,,,0.47,,2013-02-22 01:42:00,
2013-02-21 19:52:00,40.0,38.0,29.87,SE,127,4.0,11.0,94,0.06,,,0.48,,2013-02-22 01:52:00,
2013-02-21 20:02:00,41.0,39.0,29.85,ESE,107,3.0,10.0,94,0.07,,,0.50,,2013-02-22 02:02:00,
2013-02-21 20:11:00,41.0,39.0,29.85,ESE,107,3.0,10.0,94,0.07,,,0.50,,2013-02-22 02:11:00,
2013-02-21 20:21:00,41.0,39.0,29.85,ESE,109,5.0,11.0,94,0.06,,,0.51,,2013-02-22 02:21:00,
2013-02-21 20:31:00,41.0,39.0,29.85,ESE,113,3.0,10.0,94,0.06,,,0.53,,2013-02-22 02:31:00,
2013-02-21 20:42:00,41.0,39.0,29.84,ESE,118,5.0,12.0,94,0.06,,,0.54,,2013-02-22 02:42:00,
2013-02-21 20:52:00,41.0,39.0,29.84,ESE,118,5.0,12.0,94,0.06,,,0.54,,2013-02-22 02:52:00,
2013-02-21 21:01:00,42.0,40.0,29.84,SW,223,4.0,10.0,94,0.06,,,0.56,,2013-02-22 03:01:00,
2013-02-21 21:11:00,42.0,40.0,29.84,SW,223,4.0,10.0,94,0.06,,,0.56,,2013-02-22 03:11:00,
2013-02-21 21:21:00,42.0,41.0,29.83,ESE,123,4.0,9.0,95,0.06,,,0.57,,2013-02-22 03:21:00,
2013-02-21 21:31:00,42.0,41.0,29.84,West,259,6.0,14.0,95,0.06,,,0.59,,2013-02-22 03:31:00,
2013-02-21 21:41:00,42.0,41.0,29.84,West,259,6.0,14.0,95,0.06,,,0.59,,2013-02-22 03:41:00,
2013-02-21 21:52:00,43.0,42.0,29.84,SE,141,6.0,13.0,95,0.05,,,0.60,,2013-02-22 03:52:00,
2013-02-21 22:01:00,44.0,43.0,29.84,SE,143,5.0,10.0,95,0.05,,,0.61,,2013-02-22 04:01:00,
2013-02-21 22:11:00,44.0,43.0,29.84,SE,130,5.0,8.0,95,0.05,,,0.62,,2013-02-22 04:11:00,
2013-02-21 22:21:00,44.0,43.0,29.84,SE,130,5.0,8.0,95,0.05,,,0.62,,2013-02-22 04:21:00,
2013-02-21 22:32:00,44.0,43.0,29.84,SSE,153,4.0,7.0,95,0.04,,,0.63,,2013-02-22 04:32:00,
2013-02-21 22:42:00,44.0,43.0,29.84,SSE,153,4.0,7.0,95,0.04,,,0.63,,2013-02-22 04:42:00,
2013-02-21 22:52:00,44.0,43.0,29.85,WSW,240,1.0,9.0,95,0.05,,,0.65,,2013-02-22 04:52:00,
2013-02-21 23:01:00,45.0,44.0,29.85,SSE,159,1.0,5.0,95,0.05,,,0.66,,2013-02-22 05:01:00,
2013-02-21 23:12:00,45.0,44.0,29.85,SSE,159,1.0,5.0,95,0.05,,,0.66,,2013-02-22 05:12:00,
2013-02-21 23:22:00,45.0,44.0,29.86,WSW,245,3.0,5.0,95,0.05,,,0.67,,2013-02-22 05:22:00,
2013-02-21 23:32:00,45.0,44.0,29.87,WSW,246,2.0,4.0,95,0.05,,,0.68,,2013-02-22 05:32:00,
2013-02-21 23:41:00,45.0,44.0,29.87,WSW,246,2.0,4.0,95,0.05,,,0.68,,2013-02-22 05:41:00,
2013-02-21 23:52:00,46.0,45.0,29.86,SW,223,1.0,3.0,95,0.04,,,0.69,,2013-02-22 05:52:00,